Regional Weather Roundup
Issued by NWS

Home | Current Version | Previous Version | Text Only | Print | Product List | Glossary Off
Versions: 1 2 3 4 5 6 7 8 9 10 11 12 13 14 15 16 17 18 19 20 21 22 23 24 25 26 27 28 29 30 31 32 33 34 35 36 37 38 39 40 41 42 43 44 45 46 47 48 49 50

614
ASUS43 KLOT 251009
RWRIL

ILLINOIS REGIONAL WEATHER ROUNDUP
NATIONAL WEATHER SERVICE CHICAGO/ROMEOVILLE IL
500 AM CDT MON JUL 25 2016

NOTE: "FAIR" INDICATES FEW OR NO CLOUDS BELOW 12,000 FEET WITH NO
SIGNIFICANT WEATHER AND/OR OBSTRUCTIONS TO VISIBILITY.

* THESE STATIONS ARE NOT UNDER NWS QUALITY CONTROL. THEY ALSO MAY NOT
  REPORT WEATHER SUCH AS PRECIPITATION OR FOG.

ILZ001-002-007-009-015-016-024-251100-
NORTHWEST ILLINOIS

CITY           SKY/WX    TMP DP  RH WIND       PRES   REMARKS
MOLINE         PTCLDY    73  66  78 NW3       30.00S
STERLING*      CLOUDY    69  67  93 NW6       30.00S
SAVANNA*       CLOUDY    69  67  94 CALM      30.01S
$$

ILZ003-004-008-010-011-017-018-251100-
NORTH CENTRAL ILLINOIS

CITY           SKY/WX    TMP DP  RH WIND       PRES   REMARKS
ROCKFORD       MOCLDY    73  63  70 CALM      30.00R
FREEPORT*      PTCLDY    66  64  94 CALM      30.02S
ROCHELLE*      PTCLDY    68  67  96 NW5       30.00S
DE KALB*       CLOUDY    69  67  93 NW8       30.00S
$$

ILZ005-006-012>014-019>023-251100-
NORTHEAST ILLINOIS

CITY           SKY/WX    TMP DP  RH WIND       PRES   REMARKS
CHICAGO-OHARE  MOCLDY    73  69  87 W6        29.95F
CHICAGO-MIDWAY CLOUDY    77  68  73 W7        29.95S
AURORA         CLOUDY    72  70  93 W5        29.98F
LANSING*       CLOUDY    73  65  75 W9        29.96S
JOLIET*        MOCLDY    74  71  88 CALM      29.96F
WAUKEGAN       CLOUDY    73  67  81 VRB3      29.95R
DUPAGE AIRPORT CLOUDY    72  68  87 W6        29.96F
KANKAKEE*      CLOUDY    70  67  89 W3        29.97F
WHEELING       CLOUDY    73  68  84 W5        29.97S
MORRIS*        PTCLDY    72  70  92 CALM      29.96F
ROMEOVILLE*    MOCLDY    73  67  84 W3G72     29.97F
NORTHERLY ISL    N/A     76  66  71 S8          N/A
$$

LMZ740>746-251100-
SOUTHERN LAKE MICHIGAN

STATION/POSITION SKY/WX   TEMP    WIND        PRES    VSBY  WAVE
                          AIR SEA DIR/SP/G                  HT/PER
                          (F)     (DEG/KT/KT) (MB)    (MI)  (FT/S)
SOUTHERN BUOY              74 72  290/  8/ 10 1012.3F         2/ 4
WILMETTE HARBOR            68 63  270/  6/  8   N/A           1/ 2
HARRISON CRIB              78     270/ 16/ 17   N/A
BURNHAM HARBOR             76     270/  8/ 10   N/A
CALUMET HARBOR             74     240/  5/  9 1013.9F
BURNS HARBOR               73     260/ 12/ 15 1014.2F
MICHIGAN CITY              73     230/ 23/ 25   N/A
MICHIGAN CITY 6N           74 74  280/ 16/ 19   N/A           3/ 4
ST. JOSEPH                 74 73  270/ 14/ 19 1013.5R         4/ 4
$$

ILZ025>027-034>036-040-047-049-050-058-095>099-251100-
WEST-CENTRAL ILLINOIS

CITY           SKY/WX    TMP DP  RH WIND       PRES   REMARKS
QUINCY         CLOUDY    75  72  90 N8        30.01R
GALESBURG*     CLOUDY    70  69  95 E3        30.02R
MACOMB*        MOCLDY    72  70  94 CALM      30.03F
JACKSONVILLE*  CLOUDY    74  71  91 S6        30.02F
PITTSFIELD*    LGT RAIN  71  70  96 E5        30.02R
$$

ILZ028>032-037-038-041>044-048-051>054-059>061-251100-
CENTRAL ILLINOIS

CITY           SKY/WX    TMP DP  RH WIND       PRES   REMARKS
PONTIAC        CLOUDY    71  70  98 W3        29.99S
BLOOMINGTON    MOCLDY    71  69  93 W5        30.02
DECATUR        CLOUDY    72  69  90 SW9       29.97R
PEORIA         MOCLDY    74  72  93 S7        30.01R
LACON*         PTCLDY    73  72  94 W6        29.98F
LINCOLN*       CLOUDY    73  73  99 CALM      30.00R
SPRINGFIELD    CLOUDY    73  70  90 W10       30.04R
TAYLORVILLE    CLOUDY    71  71  99 SW9       30.02R
$$

ILZ033-039-045-046-055>057-062-063-251100-
EAST-CENTRAL ILLINOIS

CITY           SKY/WX    TMP DP  RH WIND       PRES   REMARKS
CHAMPAIGN      MOCLDY    71  68  90 NW10      29.96R
MATTOON        LGT RAIN  70  68  93 SE6       29.98R
PARIS*         CLOUDY    70  69  98 CALM      29.98S
$$

ILZ079-100>102-251100-
SOUTHWEST ILLINOIS

CITY           SKY/WX    TMP DP  RH WIND       PRES   REMARKS
ALTON          CLOUDY    71  70  97 NE5       30.05F
BELLEVILLE     LGT RAIN  73  73 100 CALM      29.99F
CAHOKIA*       TSTM      74  70  87 NE9       30.01F
SPARTA*        CLOUDY    77  74  90 NW13      30.02F
$$

ILZ064>066-069>071-074>076-080>082-084>086-088>090-092>094-251100-
SOUTH-CENTRAL ILLINOIS

CITY           SKY/WX    TMP DP  RH WIND       PRES   REMARKS
CARBONDALE     CLOUDY    77  75  93 CALM      30.00R
CAIRO*         CLEAR     76  75  99 CALM      29.99R FOG
EFFINGHAM*     CLOUDY    73  73  98 S3        30.02R
MARION         CLOUDY    79  77  94 CALM      30.01S HX  83
MT. VERNON     CLOUDY    75  66  73 CALM      30.00R
CENTRALIA*     CLOUDY    75  73  92 CALM      30.01R
SALEM*         CLOUDY    75  72  88 CALM      30.02R
METROPOLIS*      N/A     76  76  98 CALM      30.00R FOG
$$

ILZ067-068-072-073-078-083-087-091-251100-
SOUTHEAST ILLINOIS

CITY           SKY/WX    TMP DP  RH WIND       PRES   REMARKS
LAWRENCEVILLE  CLOUDY    72  70  93 S5        29.99F
FLORA*         MOCLDY    73  71  93 SW3       30.01R
FAIRFIELD*     CLOUDY    74  70  89 CALM      30.00R
HARRISBURG*    CLOUDY    78  77  96 CALM      30.01R HX  81
ROBINSON*      CLOUDY    69  68  98 CALM      29.99F
CARMI*         PTCLDY    73  72  95 E3        29.98F
$$

ABBREVIATIONS USED IN REMARKS
   TC - TEMPERATURE IN CELSIUS
  WCI - WIND CHILL INDEX
   HX - HEAT INDEX
  VSB - VISIBILITY
$$





USA.gov is the U.S. government's official web portal to all federal, state and local government web resources and services.